This demonstration page uses our WeatherBlox Daily Observations layout. Learn more.

Hourly Observations for November 19, 2015

Temp ( °F °C ) Dew Point ( °F °C ) Humidity (%) Winds ( mph kmh ) Pressure ( in mb ) Visibility ( mi km ) Precip ( " mm )
12:15 am 00:15 Clear 33 0.6 22 -5.3 65 65 NW 10 17 30.12 1020 10 16.0934 0 0
12:35 am 00:35 Clear 33 0.8 22 -5.4 64 64 NW 8 13 30.12 1020 10 16.0934 0 0
12:55 am 00:55 Clear 32 0 23 -5.2 68 68 NW 7 11 30.12 1020 10 16.0934 0 0
1:15 am 01:15 Clear 32 0 21 -6 64 64 WNW 8 13 30.12 1020 10 16.0934 0 0
1:35 am 01:35 Clear 31 -0.5 22 -5.5 69 69 W 8 13 30.18 1022 10 16.0934 0 0
1:55 am 01:55 Clear 30 -0.9 23 -4.9 75 75 WSW 7 11 30.18 1022 10 16.0934 0 0
2:15 am 02:15 Clear 31 -0.8 23 -4.8 75 75 W 8 13 30.18 1022 10 16.0934 0 0
2:35 am 02:35 Clear 30 -1 23 -5 75 75 W 8 13 30.21 1023 10 16.0934 0 0
2:55 am 02:55 Clear 30 -1.3 23 -5.1 76 76 W 6 9 30.21 1023 10 16.0934 0 0
3:15 am 03:15 Clear 29 -1.5 23 -5.2 76 76 WNW 7 11 30.21 1023 10 16.0934 0 0
3:35 am 03:35 Clear 29 -1.7 22 -5.6 75 75 WNW 7 11 30.21 1023 10 16.0934 0 0
3:55 am 03:55 Clear 30 -1.3 22 -5.7 72 72 WNW 3 6 30.21 1023 10 16.0934 0 0
4:15 am 04:15 Clear 29 -1.5 22 -5.7 73 73 W 9 15 30.21 1023 10 16.0934 0 0
4:35 am 04:35 Clear 29 -1.8 21 -6 73 73 WNW 6 9 30.21 1023 10 16.0934 0 0
4:55 am 04:55 Clear 28 -2.4 21 -6 77 77 W 6 9 30.24 1024 10 16.0934 0 0
5:15 am 05:15 Clear 28 -2.1 21 -6.1 74 74 W 7 11 30.24 1024 10 16.0934 0 0
5:35 am 05:35 Clear 28 -2 21 -6.1 74 74 W 6 9 30.24 1024 10 16.0934 0 0
5:55 am 05:55 Clear 27 -2.6 20 -6.4 75 75 W 6 9 30.27 1025 10 16.0934 0 0
6:15 am 06:15 Clear 28 -2.5 20 -6.5 74 74 WNW 5 7 30.24 1024 10 16.0934 0 0
6:35 am 06:35 Clear 28 -2.5 20 -6.6 74 74 WNW 5 7 30.24 1024 10 16.0934 0 0
6:55 am 06:55 Clear 27 -2.9 20 -6.5 77 77 W 6 9 30.27 1025 10 16.0934 0 0
7:15 am 07:15 Clear 25 -3.8 19 -7 79 79 W 5 7 30.3 1026 10 16.0934 0 0
7:35 am 07:35 Sunny 27 -3 20 -6.7 76 76 W 7 11 30.3 1026 10 16.0934 0 0
7:55 am 07:55 Sunny 28 -2.5 20 -6.5 74 74 W 7 11 30.27 1025 10 16.0934 0 0
8:15 am 08:15 Sunny 29 -1.9 20 -6.4 72 72 W 7 11 30.27 1025 10 16.0934 0 0
8:35 am 08:35 Sunny 30 -1 21 -6 69 69 W 7 11 30.3 1026 10 16.0934 0 0
8:55 am 08:55 Sunny 32 -0.1 22 -5.5 67 67 W 6 9 30.3 1026 10 16.0934 0 0
9:15 am 09:15 Sunny 33 0.7 22 -5.6 63 63 W 6 9 30.3 1026 10 16.0934 0 0
9:35 am 09:35 Sunny 35 1.4 23 -5.2 62 62 W 8 13 30.3 1026 10 16.0934 0 0
9:55 am 09:55 Sunny 36 2.1 22 -5.6 57 57 W 8 13 30.27 1025 10 16.0934 0 0
10:15 am 10:15 Sunny 38 3.1 22 -5.5 54 54 W 7 11 30.27 1025 10 16.0934 0 0
10:35 am 10:35 Sunny 39 3.7 21 -6.2 49 49 W 10 17 30.27 1025 10 16.0934 0 0
10:55 am 10:55 Sunny 40 4.2 21 -6.2 47 47 W 8 13 30.27 1025 10 16.0934 0 0
11:15 am 11:15 Sunny 40 4.6 21 -5.9 47 47 WSW 8 13 30.24 1024 10 16.0934 0 0
11:35 am 11:35 Sunny 42 5.3 21 -6.1 44 44 W 8 13 30.24 1024 10 16.0934 0 0
11:55 am 11:55 Sunny 42 5.8 18 -7.9 37 37 W 9 15 30.24 1024 10 16.0934 0 0
12:15 pm 12:15 Sunny 44 6.4 15 -9.5 31 31 W 10 17 30.24 1024 10 16.0934 0 0
12:35 pm 12:35 Sunny 44 6.5 15 -9.3 32 32 W 9 15 30.24 1024 10 16.0934 0 0
12:55 pm 12:55 Sunny 44 6.6 16 -9.1 32 32 W 8 13 30.24 1024 10 16.0934 0 0
1:15 pm 13:15 Sunny 44 6.5 17 -8.5 34 34 W 8 13 30.21 1023 10 16.0934 0 0
1:35 pm 13:35 Sunny 44 6.5 17 -8.1 35 35 W 6 9 30.21 1023 10 16.0934 0 0
1:55 pm 13:55 Sunny 44 6.8 18 -7.9 35 35 W 9 15 30.21 1023 10 16.0934 0 0
2:15 pm 14:15 Sunny 44 6.9 17 -8.1 34 34 W 7 11 30.18 1022 10 16.0934 0 0
2:35 pm 14:35 Sunny 44 6.9 19 -7.5 35 35 W 6 9 30.18 1022 10 16.0934 0 0
2:55 pm 14:55 Sunny 44 6.7 16 -8.9 32 32 W 8 13 30.18 1022 10 16.0934 0 0
3:15 pm 15:15 Sunny 44 6.6 16 -8.9 32 32 WSW 7 11 30.18 1022 10 16.0934 0 0
3:35 pm 15:35 Sunny 44 6.5 15 -9.5 31 31 WSW 5 7 30.18 1022 10 16.0934 0 0
3:55 pm 15:55 Sunny 44 6.5 15 -9.4 31 31 WSW 7 11 30.18 1022 10 16.0934 0 0
4:15 pm 16:15 Sunny 43 6.3 15 -9.4 32 32 WSW 5 7 30.18 1022 10 16.0934 0 0
4:35 pm 16:35 Sunny 41 5.2 16 -8.9 36 36 SW 5 7 30.18 1022 10 16.0934 0 0
4:55 pm 16:55 Mostly Cloudy 40 4.5 18 -7.6 41 41 SW 3 6 30.18 1022 10 16.0934 0 0
5:15 pm 17:15 Cloudy 39 4.1 19 -7 45 45 Calm 30.18 1022 10 16.0934 0 0
5:35 pm 17:35 Cloudy 40 4.5 18 -7.9 40 40 Calm 30.18 1022 10 16.0934 0 0
5:55 pm 17:55 Cloudy 39 4 22 -5.5 50 50 Calm 30.18 1022 10 16.0934 0 0
6:15 pm 18:15 Cloudy 37 2.7 26 -3.4 65 65 Calm 30.21 1023 10 16.0934 0 0
6:35 pm 18:35 Cloudy 37 2.9 24 -4.4 59 59 Calm 30.21 1023 10 16.0934 0 0
6:55 pm 18:55 Cloudy 37 2.5 26 -3.1 67 67 SSE 5 7 30.21 1023 10 16.0934 0 0
7:15 pm 19:15 Cloudy 37 2.5 25 -3.7 64 64 Calm 30.21 1023 10 16.0934 0 0
7:35 pm 19:35 Cloudy 37 2.5 26 -3.3 66 66 SE 5 7 30.21 1023 10 16.0934 0 0
7:55 pm 19:55 Cloudy 36 2.2 27 -3 69 69 SE 5 7 30.21 1023 10 16.0934 0 0
8:15 pm 20:15 Cloudy 37 2.6 26 -3.6 64 64 SE 6 9 30.21 1023 10 16.0934 0 0
8:35 pm 20:35 Cloudy 37 2.5 27 -2.9 68 68 SE 6 9 30.21 1023 10 16.0934 0 0
8:55 pm 20:55 Cloudy 37 2.5 27 -2.8 68 68 SSE 6 9 30.21 1023 10 16.0934 0 0
9:15 pm 21:15 Cloudy 38 3.1 26 -3.5 62 62 SSE 7 11 30.21 1023 10 16.0934 0 0
9:35 pm 21:35 Cloudy 37 3 26 -3.2 64 64 SSE 8 13 30.21 1023 10 16.0934 0 0
9:55 pm 21:55 Cloudy 37 2.8 27 -3 66 66 SSE 9 15 30.21 1023 10 16.0934 0 0
10:15 pm 22:15 Cloudy 37 2.7 27 -3 66 66 SSE 7 11 30.21 1023 10 16.0934 0 0
10:35 pm 22:35 Mostly Cloudy 35 1.8 26 -3.2 70 70 SSE 6 9 30.21 1023 10 16.0934 0 0
10:55 pm 22:55 Mostly Cloudy 35 1.7 26 -3.3 70 70 SSE 8 13 30.18 1022 10 16.0934 0 0
11:15 pm 23:15 Mostly Cloudy 35 1.8 26 -3.5 68 68 SSE 8 13 30.18 1022 10 16.0934 0 0
11:35 pm 23:35 Partly Cloudy 34 1.1 26 -3.5 72 72 SE 10 17 30.18 1022 10 16.0934 0 0
11:55 pm 23:55 Clear 34 1.1 26 -3.6 71 71 SSE 9 15 30.15 1021 10 16.0934 0 0

Powered by AerisWeather